Regional Weather Roundup
Issued by NWS Green Bay, WI

Home | Current Version | Previous Version | Graphics & Text | Print | Product List | Glossary Off
Versions: 1 2 3 4 5 6 7 8 9 10 11 12 13 14 15 16 17 18 19 20 21 22 23 24 25 26 27 28 29 30 31 32 33 34 35 36 37 38 39 40 41 42 43 44 45 46 47 48 49 50

000
ASUS43 KGRB 221500
RWRGRB

NORTH-CENTRAL AND NORTHEAST WISCONSIN REGIONAL WEATHER ROUNDUP
NATIONAL WEATHER SERVICE GREEN BAY WI
1000 AM CDT SUN APR 22 2018

WIZ005-009-010>012-018-019-221600-
NORTH CENTRAL WISCONSIN

CITY           SKY/WX    TMP DP  RH WIND       PRES   REMARKS
IRONWOOD       FAIR      52  18  26 CALM      30.38F
MANITOWISH WTR NOT AVBL
ARBOR VITAE    NOT AVBL
EAGLE RIVER    FAIR      49  21  32 CALM      30.38R
LAND O LAKES   FAIR      53  13  20 CALM      30.39S
RHINELANDER    FAIR      53  27  36 CALM      30.39R
PHILLIPS       FAIR      52  30  43 CALM      30.38S
ANTIGO         NOT AVBL
TOMAHAWK       NOT AVBL
MERRILL          N/A     49  33  54 CALM      30.39S
$$

WIZ013-073-221600-
NORTHEAST WISCONSIN

CITY           SKY/WX    TMP DP  RH WIND       PRES   REMARKS
IRON MOUNTAIN  FAIR      50  23  34 S5        30.38S
MARINETTE      FAIR      51  32  48 SE5       30.42S
$$

WIZ017-030-035>037-045-221600-
CENTRAL WISCONSIN

CITY           SKY/WX    TMP DP  RH WIND       PRES   REMARKS
MEDFORD        NOT AVBL
WAUSAU         FAIR      51  32  48 CALM      30.37F
MOSINEE        MOSUNNY   50  30  46 CALM      30.39F
MARSHFIELD     FAIR      49  32  52 SE3       30.37F
WISC RAPIDS    FAIR      51  28  41 SE5       30.39F
STEVENS POINT  NOT AVBL
WAUPACA        FAIR      50  31  49 CALM      30.41S
SHAWANO        FAIR      48  31  51 CALM      30.40S
CLINTONVILLE   FAIR      46  28  49 CALM      30.41S
WAUTOMA        FAIR      51  32  48 SE5       30.40F
$$

WIZ038-039-048-051-221600-
FOX VALLEY

CITY           SKY/WX    TMP DP  RH WIND       PRES   REMARKS
NWS GREEN BAY  FAIR      46  33  60 S3        30.41S
APPLETON       MOSUNNY   52  25  35 CALM      30.39S
OSHKOSH        FAIR      49  28  44 SE6       30.40F
FOND DU LAC    FAIR      51  24  34 CALM      30.40F
$$

WIZ022-050-052-221600-
EAST CENTRAL WISCONSIN

CITY           SKY/WX    TMP DP  RH WIND       PRES   REMARKS
EPHRAIM        NOT AVBL
WASHINGTON ISL NOT AVBL
STURGEON BAY   FAIR      53  23  31 CALM      30.42S
MANITOWOC      FAIR      50  21  32 E6        30.42F
SHEBOYGAN      FAIR      51  26  37 E5        30.41F
$$

LMZ563-521-522-541>543-221600-
LAKESHORE

STATION/POSITION TIME  TEMP    WIND        PRES    VSBY  WAVE
                       AIR SEA DIR/SP/G                  HT/PER
                 (UTC) (F)     (DEG/KT/KT) (MB)    (MI)  (FT/S)
SHEBOYGAN LKSHOR 1400   39      10/  6/  7 1030.6R
KEWAUNEE LKSHORE 1430   40     140/  2/  3 1029.3R
NORTHPORT PIER   1440   40                 1029.8S
SISTER BAY LKSHO 1427   49        CALM       N/A
MENOMINEE LKSHOR 1424   38     100/  3/  4 1029.2
$$



USA.gov is the U.S. government's official web portal to all federal, state and local government web resources and services.